Hovedside
METAR-TAF:

METAR-TAF

Lufthavner :

Palma de Mallorca, Spania

Son Sant Joan lufthavn

breddegrad: 39-33N, lengdegrad: 002-44E, høyde over havet: 4 m

Gjeldene værobservasjon

Denne rapporten ble laget for 20 minutter siden, klokken 19:00 UTC
Vind 1 kt fra Sør
Temperatur 14°C
Luftfuktighet 72%
Trykk 1022 hPa
Sikt 10 km eller mer
Spredte skyer i en høyde av 2200 ft

METAR: LEPA 181900Z 18001KT 9999 SCT022 14/09 Q1022 NOSIG

Tid: 20:20 (19:20 UTC)

Varsel

Denne rapporten ble laget for 2 timer og 20 minutter siden, klokken 17:00 UTC
Varsel gyldig fra 18. klokken 18 UTC til 19. klokken 18 UTC
Vind 7 kt fra Sør-sørvest
Sikt 10 km eller mer
Få skyer i en høyde av 2000 ft
Blir
fra 18. klokken 18 UTC til 18. klokken 20 UTC
Vind 3 kt fra skiftende retning
Blir
fra 19. klokken 10 UTC til 19. klokken 12 UTC
Vind 8 kt fra Vest-sørvest

TAF: LEPA 181700Z 1818/1918 21007KT 9999 FEW020 TX17/1913Z TN06/1907Z BECMG 1818/1820 VRB03KT BECMG 1910/1912 24008KT

Værobservasjoner og værvarsel for over 4000 flyplasser (METAR- og TAF-rapporter).

Tilgjengelige stasjoner er representert av de røde og gule prikkene på kartet.

Hold musepekeren over prikken for å se navnet på stasjonen.

Klikk så for å se værobservasjoner og -varsler.

For å forandre kartet kan du klikke på den grønne knappen med svart kryss for å zoome inn, på den grønne knappen med strek for å zoome ut, eller på de grønne pilene for å se tilstøtende kart.


METAR-TAF: